Weather History for Miyakojima, Japan

Change the Weather History Date:

Monday, February 4, 2013

  Actual Average Record
Temperature  
Mean Temperature 74 °F -  
Max Temperature 79 °F 68 °F 79 °F (2013)
Min Temperature 70 °F 60 °F 53 °F (1999)
Cooling Degree Days 9    
Growing Degree Days 24 (Base 50)    
Moisture  
Dew Point 68 °F    
Average Humidity 78    
Maximum Humidity 89    
Minimum Humidity 65    
Precipitation  
Precipitation 0.00 in - - ()
Sea Level Pressure  
Sea Level Pressure 30.11 in    
Wind  
Wind Speed 9 mph ()    
Max Wind Speed 13 mph    
Max Gust Speed -    
Visibility 8.8 miles    
Events      
Averages and records for this station are not official NWS values.
T = Trace of Precipitation, MM = Missing Value Source: Averaged Metar Reports

Daily Weather History Graph

Daily Weather History Graph

Search for Another Location

Airport:

Trip Planner

Search our weather history database for the weather conditions in past years. The results will help you decide how hot, cold, wet, or windy it might be!

Date:

Astronomy

Feb. 04, 2013 Rise Set
Actual Time 7:19 AM JST 6:26 PM JST
Civil Twilight 6:56 AM JST 6:49 PM JST
Nautical Twilight 6:28 AM JST 7:16 PM JST
Astronomical Twilight 6:02 AM JST 7:43 PM JST
Moon 1:11 AM JST (2/4) 12:27 PM JST (2/4)
Length of Visible Light 11h 53m
Length of Day
11h 06m
Last Quarter, 44% of the Moon is Illuminated
Feb 4
Last Quarter
Feb 10
New
Feb 18
First Quarter
Feb 26
Full
Mar 5
Last Quarter

Hourly Weather History & Observations

Time (JST) Temp. Dew Point Humidity Pressure Visibility Wind Dir Wind Speed Gust Speed Precip Events Conditions
12:00 AM 71 °F 67 °F 84% 30.13 in - South 12.7 mph - -  
3:00 AM 71 °F 67 °F 84% 30.13 in 12 mi South 11.5 mph - -   Scattered Clouds
6:00 AM 71 °F 69 °F 89% 30.12 in 12 mi South 10.4 mph - -   Partly Cloudy
6:30 AM 71.6 °F 66.2 °F 83% 30.09 in 6.2 mi South 10.4 mph - N/A   Partly Cloudy
7:00 AM 69.8 °F 66.2 °F 88% 30.09 in 6.2 mi South 9.2 mph - N/A   Partly Cloudy
8:00 AM 71.6 °F 68.0 °F 88% 30.12 in 6.2 mi South 9.2 mph - N/A   Partly Cloudy
9:00 AM 74 °F 69 °F 81% 30.15 in 16 mi SSW 10.4 mph - -   Partly Cloudy
9:00 AM 75.2 °F 68.0 °F 78% 30.12 in 6.2 mi South 10.4 mph - N/A   Partly Cloudy
10:00 AM 75.2 °F 66.2 °F 73% 30.12 in 6.2 mi SSW 11.5 mph - N/A   Scattered Clouds
11:00 AM 77.0 °F 66.2 °F 69% 30.12 in 6.2 mi SW 10.4 mph - N/A   Scattered Clouds
12:00 PM 77 °F 70 °F 72% 30.14 in 19 mi SW 10.4 mph - -   Scattered Clouds
12:00 PM 78.8 °F 66.2 °F 65% 30.12 in 6.2 mi SSW 11.5 mph - N/A   Scattered Clouds
1:00 PM 78.8 °F 66.2 °F 65% 30.09 in 6.2 mi SSW 11.5 mph - N/A   Scattered Clouds
2:00 PM 77.0 °F 66.2 °F 69% 30.09 in 6.2 mi SSW 9.2 mph - N/A   Scattered Clouds
3:00 PM 78 °F 70 °F 71% 30.09 in 19 mi South 9.2 mph - -   Partly Cloudy
3:00 PM 75.2 °F 66.2 °F 73% 30.06 in 6.2 mi SSW 10.4 mph - N/A   Scattered Clouds
4:00 PM 75.2 °F 66.2 °F 73% 30.06 in 6.2 mi South 10.4 mph - N/A   Mostly Cloudy
5:00 PM 75.2 °F 68.0 °F 78% 30.06 in 6.2 mi South 10.4 mph - N/A   Scattered Clouds
6:00 PM 73.4 °F 68.0 °F 83% 30.09 in 6.2 mi South 11.5 mph - N/A   Partly Cloudy
8:00 PM 71.6 °F 68.0 °F 88% 30.12 in 6.2 mi South 9.2 mph - N/A   Mostly Cloudy
9:00 PM 73 °F 70 °F 86% 30.15 in 12 mi South 9.2 mph - -   Partly Cloudy